Location: A�t Bou Chrif
(32.7193°N, 5.2385°W)
Time: 04:22:03
(UTC+00:00)

COSMOS 2406 - Pass Details

Date: 08 August 2020
Orbit: 845 x 862 km, 71.0° (Epoch: 20 September)

Event Time Altitude Azimuth Distance (km) Brightness Sun altitude
Rises 19:41:40 0° 181° (S) 3,421 6.1 -6.5°
Reaches altitude 10° 19:44:14 10° 174° (S) 2,487 5.4 -7.0°
Maximum altitude 19:49:35 42° 105° (ESE) 1,201 3.6 -8.0°
Drops below altitude 10° 19:54:57 10° 36° (NE) 2,494 5.6 -9.0°
Sets 19:57:31 0° 29° (NNE) 3,431 6.3 -9.5°
